GW3957 Weather Reports


Display with metric or nautical units.
time (UTC)temp
F
wind
direction
speed
MPH
gust
MPH
rain 1hr
in
rain 24hr
in
rain mn
in
humidity
%
barometer
mb
20260831101528 57 214 0.0 0.0 0.00 0.00 0.00 99 1022.3
20260831101025 57 214 0.0 0.0 0.00 0.00 0.00 99 1022.4
20260831100520 57 214 0.0 0.0 0.00 0.00 0.00 99 1022.3
20260831100016 57 214 0.0 0.0 0.00 0.00 0.00 99 1022.2
20260831095514 56 213 0.0 0.0 0.00 0.00 0.00 99 1022.4
20260831095009 56 213 0.0 0.0 0.00 0.00 0.00 99 1022.5
20260831094505 56 213 0.0 0.0 0.00 0.00 0.00 99 1022.4
20260831094001 56 213 0.0 0.0 0.00 0.00 0.00 99 1022.5
20260831093456 56 213 0.0 0.0 0.00 0.00 0.00 99 1022.3
20260831092952 56 213 0.0 0.0 0.00 0.00 0.00 99 1022.3
20260831092448 56 213 0.0 0.0 0.00 0.00 0.00 99 1022.3
20260831091943 56 213 0.0 0.0 0.00 0.00 0.00 99 1022.4
20260831091438 56 218 0.0 0.0 0.00 0.00 0.00 99 1022.5
20260831090933 56 218 0.0 0.0 0.00 0.00 0.00 99 1022.5
20260831090429 56 218 0.0 0.0 0.00 0.00 0.00 99 1022.2
20260831085925 56 218 0.0 0.0 0.00 0.00 0.00 99 1022.1
20260831085420 56 218 0.0 0.0 0.00 0.00 0.00 99 1022.2
20260831084919 56 218 0.0 0.0 0.00 0.00 0.00 99 1022.3
20260831084416 56 218 0.0 0.0 0.00 0.00 0.00 99 1022.2
20260831083912 56 218 0.0 0.0 0.00 0.00 0.00 99 1022.2
20260831083407 56 218 0.0 0.0 0.00 0.00 0.00 99 1022.3
20260831082906 56 217 0.0 0.0 0.00 0.00 0.00 99 1022.3
20260831082406 56 216 0.0 0.0 0.00 0.00 0.00 99 1022.5
20260831081901 56 217 0.0 0.0 0.00 0.00 0.00 99 1022.3
20260831081356 56 217 0.0 0.0 0.00 0.00 0.00 99 1022.3
20260831080853 56 217 0.0 0.0 0.00 0.00 0.00 99 1022.0
20260831080348 56 216 0.0 0.0 0.00 0.00 0.00 99 1022.3
20260831075843 57 216 0.0 0.0 0.00 0.00 0.00 99 1022.1
20260831075338 57 216 0.0 0.0 0.00 0.00 0.00 99 1022.3
20260831074833 57 216 0.0 0.0 0.00 0.00 0.00 99 1022.2
20260831074332 57 216 0.0 0.0 0.00 0.00 0.00 99 1022.1
20260831073828 57 216 0.0 0.0 0.00 0.00 0.00 99 1022.0
20260831073326 57 219 0.0 0.0 0.00 0.00 0.00 99 1022.2
20260831072822 57 219 0.0 0.0 0.00 0.00 0.00 99 1022.1
20260831072313 57 219 0.0 0.0 0.00 0.00 0.00 99 1022.1
20260831071808 57 219 0.0 0.0 0.00 0.00 0.00 99 1022.2
20260831071302 57 219 0.0 0.0 0.00 0.00 0.00 99 1022.1
20260831070802 58 219 0.0 0.0 0.00 0.00 0.00 99 1022.4
20260831070301 58 219 0.0 0.0 0.00 0.00 0.00 99 1022.3
20260831065800 58 219 0.0 0.0 0.00 0.00 0.00 99 1022.4
20260831065258 58 220 0.0 0.0 0.00 0.00 0.00 99 1022.5
20260831064754 58 220 0.0 0.0 0.00 0.00 0.00 99 1022.2
20260831064255 59 220 0.0 0.0 0.00 0.00 0.00 99 1022.4
20260831063751 59 220 0.0 0.0 0.00 0.00 0.00 99 1022.4
20260831063246 59 218 0.0 0.0 0.00 0.00 0.00 99 1022.4
20260831062745 59 223 0.0 0.0 0.00 0.00 0.00 98 1022.3
20260831062240 60 223 0.0 0.0 0.00 0.00 0.00 98 1022.7
20260831061738 60 223 0.0 0.0 0.00 0.00 0.00 97 1022.7
20260831061234 60 223 0.0 0.0 0.00 0.00 0.00 97 1022.6
20260831060731 61 224 0.0 0.0 0.00 0.00 0.00 96 1022.6
20260831060230 61 228 0.0 0.0 0.00 0.00 0.00 96 1022.8
20260831055724 61 226 0.0 0.0 0.00 0.00 0.00 95 1022.8
20260831055224 61 226 0.0 0.0 0.00 0.00 0.00 95 1022.8
20260831054719 61 226 0.0 0.0 0.00 0.00 0.00 95 1022.8
20260831054214 61 226 0.0 0.0 0.00 0.00 0.00 95 1022.8
20260831053707 62 226 0.0 0.0 0.00 0.00 0.00 95 1022.8
20260831053207 62 254 1.0 1.0 0.00 0.00 0.00 95 1023.0
20260831052706 62 225 0.0 0.0 0.00 0.00 0.00 95 1023.0
20260831052206 62 250 0.0 1.0 0.00 0.00 0.00 95 1022.9
20260831051704 62 234 0.0 0.0 0.00 0.00 0.00 95 1022.8
20260831051203 62 214 0.0 0.0 0.00 0.00 0.00 95 1022.7
20260831050702 62 232 0.0 2.0 0.00 0.00 0.00 96 1022.9
20260831050201 62 211 0.0 0.0 0.00 0.00 0.00 96 1023.1
20260831045656 62 237 0.0 0.0 0.00 0.00 0.00 97 1022.9
20260831045151 62 232 0.0 0.0 0.00 0.00 0.00 96 1023.1
20260831044646 62 232 0.0 0.0 0.00 0.00 0.00 96 1023.0
20260831044141 62 235 0.0 0.0 0.00 0.00 0.00 97 1023.1
20260831043637 61 235 0.0 0.0 0.00 0.00 0.00 97 1023.1
20260831043132 61 225 0.0 0.0 0.00 0.00 0.00 97 1023.1
20260831042631 61 225 0.0 0.0 0.00 0.00 0.00 97 1023.0
20260831042126 61 249 0.0 0.0 0.00 0.00 0.00 97 1023.0
20260831041621 61 212 0.0 0.0 0.00 0.00 0.00 98 1023.0
20260831041120 62 213 0.0 0.0 0.00 0.00 0.00 97 1023.0
20260831040615 62 212 0.0 0.0 0.00 0.00 0.00 97 1023.0
20260831040109 62 212 0.0 0.0 0.00 0.00 0.00 97 1023.0
20260831035607 62 212 0.0 0.0 0.00 0.00 0.00 97 1022.9
20260831035057 62 209 0.0 0.0 0.00 0.00 0.00 98 1023.4
20260831034556 62 209 0.0 0.0 0.00 0.00 0.00 98 1023.2
20260831034052 62 227 0.0 0.0 0.00 0.00 0.00 98 1023.4
20260831033547 62 227 0.0 0.0 0.00 0.00 0.00 98 1023.2
20260831033042 62 224 0.0 0.0 0.00 0.00 0.00 99 1023.4
20260831032542 62 224 0.0 0.0 0.00 0.00 0.00 99 1023.2
20260831032038 62 224 0.0 0.0 0.00 0.00 0.00 98 1023.4
20260831031537 62 224 0.0 0.0 0.00 0.00 0.00 98 1023.2
20260831031036 62 224 0.0 0.0 0.00 0.00 0.00 98 1023.1
20260831030535 62 224 0.0 0.0 0.00 0.00 0.00 98 1023.0
20260831030034 62 224 0.0 0.0 0.00 0.00 0.00 98 1023.2
20260831025527 62 224 0.0 0.0 0.00 0.00 0.00 98 1023.2
20260831025023 62 224 0.0 0.0 0.00 0.00 0.00 98 1023.2
20260831024518 62 224 0.0 0.0 0.00 0.00 0.00 98 1023.2
20260831024018 62 244 0.0 0.0 0.00 0.00 0.00 97 1023.1
20260831023515 62 225 0.0 0.0 0.00 0.00 0.00 97 1023.2
20260831023010 62 229 0.0 0.0 0.00 0.00 0.00 97 1023.4
20260831022509 62 229 0.0 0.0 0.00 0.00 0.00 97 1023.4
20260831022005 63 232 0.0 0.0 0.00 0.00 0.00 96 1023.4
20260831021504 63 236 0.0 0.0 0.00 0.00 0.00 96 1023.6
20260831021000 63 219 0.0 0.0 0.00 0.00 0.00 95 1023.4
20260831020500 63 219 0.0 0.0 0.00 0.00 0.00 95 1023.5
20260831015954 63 239 0.0 0.0 0.00 0.00 0.00 94 1023.5
20260831015451 64 218 0.0 0.0 0.00 0.00 0.00 93 1023.5
20260831014945 64 233 0.0 0.0 0.00 0.00 0.00 93 1023.2
20260831014435 64 223 0.0 0.0 0.00 0.00 0.00 93 1023.1
20260831013930 64 237 0.0 0.0 0.00 0.00 0.00 93 1023.4
20260831013425 64 213 0.0 0.0 0.00 0.00 0.00 93 1023.4
20260831012920 64 218 0.0 1.0 0.00 0.00 0.00 93 1023.4
20260831012415 64 230 0.0 2.0 0.00 0.00 0.00 93 1023.1
20260831011914 64 228 0.0 0.0 0.00 0.00 0.00 93 1023.2
20260831011409 64 241 0.0 1.0 0.00 0.00 0.00 93 1023.0
20260831010906 64 218 0.0 0.0 0.00 0.00 0.00 93 1023.2
20260831010400 64 214 0.0 0.0 0.00 0.00 0.00 93 1023.1
20260831005856 64 237 0.0 0.0 0.00 0.00 0.00 93 1023.1
20260831005351 64 238 0.0 0.0 0.00 0.00 0.00 93 1023.1
20260831004846 64 245 0.0 0.0 0.00 0.00 0.00 93 1023.0
20260831004342 64 232 0.0 0.0 0.00 0.00 0.00 93 1023.1
20260831003837 64 236 0.0 0.0 0.00 0.00 0.00 93 1022.9
20260831003333 64 236 0.0 0.0 0.00 0.00 0.00 93 1023.0
20260831002827 64 238 0.0 0.0 0.00 0.00 0.00 93 1022.8
20260831002326 64 246 0.0 0.0 0.00 0.00 0.00 93 1022.7
20260831001822 64 227 0.0 0.0 0.00 0.00 0.00 93 1022.7
20260831001317 64 222 0.0 0.0 0.00 0.00 0.00 93 1022.6
20260831000815 64 228 0.0 0.0 0.00 0.00 0.00 94 1022.6
20260831000314 64 226 0.0 0.0 0.00 0.00 0.00 94 1022.5
20260830235813 64 232 0.0 0.0 0.00 0.00 0.00 94 1022.5
20260830235308 64 236 0.0 0.0 0.00 0.00 0.00 94 1022.4
20260830234803 64 222 0.0 0.0 0.00 0.00 0.00 93 1022.3
20260830234259 64 230 0.0 0.0 0.00 0.00 0.00 93 1022.2
20260830233754 64 231 0.0 0.0 0.00 0.00 0.00 93 1022.2
20260830233250 64 231 0.0 0.0 0.00 0.00 0.00 94 1022.2
20260830232745 64 226 0.0 0.0 0.00 0.00 0.00 93 1022.4
20260830232241 64 227 0.0 1.0 0.00 0.00 0.00 93 1022.4
20260830231737 64 221 0.0 0.0 0.00 0.00 0.00 94 1022.4
20260830231236 64 221 0.0 0.0 0.00 0.00 0.00 94 1022.5
20260830230731 64 220 0.0 0.0 0.00 0.00 0.00 94 1022.3
20260830230227 64 220 0.0 0.0 0.00 0.00 0.00 94 1022.2
20260830225726 65 220 0.0 0.0 0.00 0.00 0.00 94 1022.4
20260830225221 65 220 0.0 0.0 0.00 0.00 0.00 95 1022.5
20260830224721 65 221 0.0 0.0 0.00 0.00 0.00 94 1022.4
20260830224216 65 229 0.0 0.0 0.00 0.00 0.00 94 1022.6
20260830223713 65 207 0.0 0.0 0.00 0.00 0.00 94 1022.4
20260830223208 65 221 0.0 0.0 0.00 0.00 0.00 94 1022.6
20260830222702 65 233 0.0 0.0 0.00 0.00 0.00 94 1022.4
20260830222158 65 246 0.0 1.0 0.00 0.00 0.00 94 1022.5
20260830221653 65 232 0.0 0.0 0.00 0.00 0.00 94 1022.6
20260830221149 65 225 0.0 0.0 0.00 0.00 0.00 94 1022.7
20260830220644 65 225 0.0 0.0 0.00 0.00 0.00 94 1022.7
20260830220143 65 238 0.0 1.0 0.00 0.00 0.00 94 1022.6
20260830215642 65 237 0.0 0.0 0.00 0.00 0.00 94 1022.5
20260830215137 65 237 0.0 0.0 0.00 0.00 0.00 94 1022.8
20260830214633 65 221 0.0 1.0 0.00 0.00 0.00 94 1022.7
20260830214133 65 183 2.0 2.0 0.00 0.00 0.00 94 1022.8
20260830213632 66 281 1.0 1.0 0.00 0.00 0.00 94 1022.7
20260830213127 66 213 0.0 0.0 0.00 0.00 0.00 94 1022.7
20260830212623 66 215 0.0 0.0 0.00 0.00 0.00 95 1022.6
20260830212118 66 214 0.0 0.0 0.00 0.00 0.00 95 1022.5
20260830211613 66 236 0.0 0.0 0.00 0.00 0.00 94 1022.6
20260830211113 66 250 0.0 1.0 0.00 0.00 0.00 93 1022.5
20260830210608 67 225 0.0 0.0 0.00 0.00 0.00 92 1022.6
20260830210108 67 247 0.0 0.0 0.00 0.00 0.00 91 1022.5
20260830205600 68 243 3.0 3.0 0.00 0.00 0.00 88 1022.4
20260830205056 69 221 0.0 0.0 0.00 0.00 0.00 89 1022.4
20260830204555 69 214 0.0 0.0 0.00 0.00 0.00 88 1022.1
20260830204054 69 227 0.0 0.0 0.00 0.00 0.00 86 1022.2
20260830203550 69 221 0.0 0.0 0.00 0.00 0.00 86 1022.1
20260830203050 70 218 0.0 0.0 0.00 0.00 0.00 84 1021.9
20260830202544 70 220 0.0 0.0 0.00 0.00 0.00 86 1022.0
20260830202040 70 218 0.0 0.0 0.00 0.00 0.00 84 1021.8
20260830201540 70 217 0.0 0.0 0.00 0.00 0.00 83 1022.0
20260830201035 70 227 0.0 0.0 0.00 0.00 0.00 85 1021.8
20260830200530 70 230 0.0 0.0 0.00 0.00 0.00 84 1022.0
20260830200029 70 215 0.0 0.0 0.00 0.00 0.00 83 1022.2
20260830195525 70 200 0.0 0.0 0.00 0.00 0.00 85 1022.0
20260830195023 70 135 0.0 0.0 0.00 0.00 0.00 84 1021.9
20260830194522 71 223 0.0 0.0 0.00 0.00 0.00 81 1021.9
20260830194017 71 182 0.0 1.0 0.00 0.00 0.00 81 1021.9
20260830193516 71 211 1.0 1.0 0.00 0.00 0.00 81 1021.9
20260830193011 71 210 0.0 0.0 0.00 0.00 0.00 83 1022.1
20260830192506 71 202 0.0 0.0 0.00 0.00 0.00 81 1022.1
20260830192001 72 225 0.0 0.0 0.00 0.00 0.00 79 1022.0
20260830191501 72 200 0.0 1.0 0.00 0.00 0.00 76 1022.1
20260830190956 72 182 0.0 1.0 0.00 0.00 0.00 76 1022.1
20260830190452 73 239 0.0 0.0 0.00 0.00 0.00 80 1022.0
20260830185951 73 216 0.0 0.0 0.00 0.00 0.00 75 1021.8
20260830185446 74 244 0.0 1.0 0.00 0.00 0.00 76 1022.0
20260830184941 74 83 2.0 4.0 0.00 0.00 0.00 74 1021.9
20260830184440 74 261 0.0 0.0 0.00 0.00 0.00 75 1021.9
20260830183935 74 197 0.0 1.0 0.00 0.00 0.00 74 1021.8
20260830183430 74 216 0.0 0.0 0.00 0.00 0.00 74 1021.8
20260830182926 74 211 0.0 0.0 0.00 0.00 0.00 74 1022.0
20260830182421 74 193 0.0 0.0 0.00 0.00 0.00 74 1022.1
20260830181917 74 279 1.0 3.0 0.00 0.00 0.00 74 1022.0
20260830181413 73 284 0.0 1.0 0.00 0.00 0.00 76 1022.0
20260830180912 73 323 0.0 0.0 0.00 0.00 0.00 76 1021.9
20260830180407 73 260 0.0 1.0 0.00 0.00 0.00 76 1022.1
20260830175905 73 200 0.0 0.0 0.00 0.00 0.00 75 1022.3
20260830175400 74 210 0.0 0.0 0.00 0.00 0.00 74 1022.1
20260830174855 75 224 0.0 2.0 0.00 0.00 0.00 72 1022.2
20260830174351 76 229 0.0 1.0 0.00 0.00 0.00 75 1021.8
20260830173845 76 51 1.0 1.0 0.00 0.00 0.00 73 1021.8
20260830173340 76 276 0.0 0.0 0.00 0.00 0.00 74 1021.8
20260830172836 75 182 1.0 2.0 0.00 0.00 0.00 75 1021.8
20260830172332 74 303 2.0 4.0 0.00 0.00 0.00 74 1021.8
20260830171828 75 96 2.0 3.0 0.00 0.00 0.00 74 1021.8
20260830171323 75 228 1.0 1.0 0.00 0.00 0.00 79 1021.8
20260830170813 74 234 0.0 2.0 0.00 0.00 0.00 75 1022.0
20260830170312 75 216 0.0 1.0 0.00 0.00 0.00 73 1022.1
20260830165810 75 269 1.0 2.0 0.00 0.00 0.00 76 1022.0
20260830165306 73 251 1.0 1.0 0.00 0.00 0.00 78 1022.1
20260830164803 73 249 0.0 1.0 0.00 0.00 0.00 79 1022.2
20260830164258 73 230 0.0 1.0 0.00 0.00 0.00 79 1022.2
20260830163749 72 242 1.0 2.0 0.00 0.00 0.00 78 1022.2
20260830163244 72 259 0.0 0.0 0.00 0.00 0.00 80 1022.0
20260830162738 72 172 0.0 3.0 0.00 0.00 0.00 80 1022.1
20260830162235 73 171 2.0 3.0 0.00 0.00 0.00 78 1022.2
20260830161730 72 257 3.0 6.0 0.00 0.00 0.00 78 1022.1
20260830161224 72 138 1.0 7.0 0.00 0.00 0.00 78 1022.3
20260830160720 71 135 3.0 3.0 0.00 0.00 0.00 78 1022.3
20260830160220 72 319 1.0 6.0 0.00 0.00 0.00 81 1022.5
20260830155717 71 234 0.0 3.0 0.00 0.00 0.00 80 1022.1
20260830155212 69 126 0.0 2.0 0.00 0.00 0.00 84 1022.2
20260830154707 70 137 1.0 2.0 0.00 0.00 0.00 83 1022.4
20260830154203 70 320 2.0 3.0 0.00 0.00 0.00 83 1022.3
20260830153700 69 243 0.0 1.0 0.00 0.00 0.00 85 1022.6
20260830153159 69 116 0.0 2.0 0.00 0.00 0.00 84 1022.7
20260830152658 69 213 0.0 1.0 0.00 0.00 0.00 85 1022.6
20260830152157 69 87 0.0 2.0 0.00 0.00 0.00 84 1022.5
20260830151653 69 269 2.0 3.0 0.00 0.00 0.00 83 1022.3
20260830151152 68 1 1.0 1.0 0.00 0.00 0.00 83 1022.3
20260830150647 68 252 0.0 1.0 0.00 0.00 0.00 86 1022.3
20260830150142 68 185 0.0 1.0 0.00 0.00 0.00 86 1022.2
20260830145641 68 211 1.0 2.0 0.00 0.00 0.00 85 1022.4
20260830145137 67 167 0.0 1.0 0.00 0.00 0.00 86 1022.3
20260830144632 68 106 1.0 4.0 0.00 0.00 0.00 84 1022.2
20260830144128 68 116 1.0 2.0 0.00 0.00 0.00 83 1022.3
20260830143624 68 247 0.0 1.0 0.00 0.00 0.00 84 1022.2
20260830143121 68 263 1.0 1.0 0.00 0.00 0.00 84 1022.4
20260830142617 68 293 1.0 2.0 0.00 0.00 0.00 83 1022.4
20260830142112 68 178 2.0 4.0 0.00 0.00 0.00 83 1022.2
20260830141607 68 208 0.0 0.0 0.00 0.00 0.00 84 1022.5
20260830141102 68 141 1.0 2.0 0.00 0.00 0.00 83 1022.3
20260830140556 67 287 0.0 2.0 0.00 0.00 0.00 84 1022.2
20260830140052 67 169 0.0 2.0 0.00 0.00 0.00 83 1022.4
20260830135547 67 220 0.0 2.0 0.00 0.00 0.00 83 1022.5
20260830135042 67 217 0.0 0.0 0.00 0.00 0.00 83 1022.3
20260830134538 67 188 1.0 7.0 0.00 0.00 0.00 82 1022.3
20260830134033 67 210 0.0 0.0 0.00 0.00 0.00 84 1022.5
20260830133529 67 113 2.0 2.0 0.00 0.00 0.00 81 1022.4
20260830133024 67 340 1.0 2.0 0.00 0.00 0.00 80 1022.5
20260830132520 67 320 0.0 2.0 0.00 0.00 0.00 81 1022.7
20260830132020 66 286 1.0 2.0 0.00 0.00 0.00 79 1022.7
20260830131519 66 105 2.0 2.0 0.00 0.00 0.00 79 1022.7
20260830131014 66 249 0.0 2.0 0.00 0.00 0.00 80 1022.9
20260830130509 66 213 1.0 2.0 0.00 0.00 0.00 78 1022.9
20260830130004 65 231 0.0 1.0 0.00 0.00 0.00 81 1023.0
20260830125458 64 213 0.0 2.0 0.00 0.00 0.00 82 1022.9
20260830124956 64 82 0.0 1.0 0.00 0.00 0.00 80 1022.7
20260830124451 64 131 0.0 1.0 0.00 0.00 0.00 82 1022.8
20260830123947 64 210 0.0 0.0 0.00 0.00 0.00 82 1022.8
20260830123443 64 179 1.0 1.0 0.00 0.00 0.00 82 1023.1
20260830122941 64 119 0.0 0.0 0.00 0.00 0.00 80 1023.0
20260830122440 64 204 0.0 0.0 0.00 0.00 0.00 79 1023.0
20260830121935 64 91 0.0 1.0 0.00 0.00 0.00 80 1023.1
20260830121431 64 160 1.0 1.0 0.00 0.00 0.00 80 1023.2
20260830120925 64 179 0.0 1.0 0.00 0.00 0.00 78 1023.2
20260830120421 63 171 1.0 1.0 0.00 0.00 0.00 80 1023.4
20260830115917 63 205 0.0 0.0 0.00 0.00 0.00 79 1023.5
20260830115414 63 113 0.0 0.0 0.00 0.00 0.00 79 1023.4
20260830114909 63 189 1.0 2.0 0.00 0.00 0.00 81 1023.5
20260830114406 62 228 0.0 0.0 0.00 0.00 0.00 80 1023.6
20260830113905 62 184 0.0 0.0 0.00 0.00 0.00 81 1023.6
20260830113400 60 194 0.0 0.0 0.00 0.00 0.00 83 1023.6
20260830112856 60 177 1.0 2.0 0.00 0.00 0.00 82 1023.6
20260830112351 61 163 2.0 2.0 0.00 0.00 0.00 80 1023.6
20260830111847 60 166 1.0 2.0 0.00 0.00 0.00 81 1023.6
20260830111343 59 149 0.0 2.0 0.00 0.00 0.00 86 1023.6
20260830110843 59 169 2.0 2.0 0.00 0.00 0.00 83 1023.5
20260830110339 58 185 0.0 0.0 0.00 0.00 0.00 88 1023.8
20260830105838 58 214 0.0 0.0 0.00 0.00 0.00 86 1023.7
20260830105335 57 207 0.0 0.0 0.00 0.00 0.00 86 1023.7
20260830104831 57 205 0.0 0.0 0.00 0.00 0.00 88 1023.6
20260830104327 57 201 0.0 0.0 0.00 0.00 0.00 88 1023.7
20260830103826 57 205 0.0 0.0 0.00 0.00 0.00 88 1023.6
20260830103323 57 206 0.0 0.0 0.00 0.00 0.00 89 1023.8
20260830102820 57 207 0.0 0.0 0.00 0.00 0.00 86 1023.6
20260830102316 57 214 0.0 0.0 0.00 0.00 0.00 87 1023.6